Location: Narrabri
(30.3170°S, 149.7830°E)
Time: 07:56:14
(UTC+11:00)

N. Korean satellite - Pass Details

Date: 12 October 2017
Orbit: 461 x 513 km, 97.2° (Epoch: 10 December)

Event Time Altitude Azimuth Distance (km) Brightness Sun altitude
Rises 20:43:43 0° 193° (SSW) 2,661 10.8 -20.5°
Reaches altitude 10° 20:46:41 10° 219° (SW) 1,761 10.3 -21.1°
Maximum altitude 20:48:40 14° 250° (WSW) 1,524 10.1 -21.5°
Drops below altitude 10° 20:50:37 10° 282° (WNW) 1,741 10.1 -21.8°
Sets 20:53:32 0° 308° (NW) 2,608 10.7 -22.4°
